Temp
63 63 63 63 62 62 62 61 61 61 62 62 62 62 61 61 61 61 61 60 61 63 63 63 63 63 58 52 57 65 72 71 66 65 62 60 55 53 48 48 50 47 51 55 57 56 55
62 62 62 62 62 61 62 61 61 61 61 61 61 61 61 61 61 60 61 60 61 62 62 63 63 63 54 48 62 66 65 65 64 62 60 60 58 57 51 50 50 50 52 54 55 56 54
62 62 61 61 61 60 61 61 60 60 61 61 61 60 60 60 60 60 60 61 62 62 62 63 63 62 53 56 62 63 66 63 64 63 59 59 60 55 52 50 54 51 49 51 52 52 53
62 61 60 60 60 60 60 60 60 60 60 60 60 60 60 60 60 60 60 61 61 61 62 63 64 56 52 64 61 64 62 62 63 64 63 61 62 57 52 53 53 46 43 41 49 50 51
60 60 59 59 60 60 59 59 59 59 60 59 59 59 59 59 59 59 59 60 61 61 62 63 55 52 52 65 61 62 62 62 62 61 61 68 60 52 51 44 41 40 37 38 46 50 49
59 59 59 59 59 59 59 59 58 59 59 59 58 58 58 58 59 59 60 61 61 60 61 63 63 49 56 56 60 63 61 64 59 58 57 54 49 44 41 41 34 37 36 37 41 46 46
59 58 59 59 59 58 58 58 58 58 58 58 58 57 57 58 58 58 56 55 53 51 52 52 53 53 57 60 63 59 62 60 57 53 45 47 42 39 45 44 44 42 38 39 43 49 45
58 58 58 58 58 58 57 57 57 57 57 57 57 57 57 57 58 58 54 52 50 52 47 54 54 56 59 59 55 57 63 54 50 44 46 42 38 48 48 46 44 42 39 39 44 47 46
58 58 57 57 57 57 57 57 57 57 57 56 56 56 56 57 57 56 53 52 57 55 44 51 55 54 56 60 54 54 59 52 47 43 43 39 46 50 47 43 42 41 39 38 42 45 44
58 57 57 57 56 56 56 56 56 56 56 56 56 56 56 56 55 52 51 56 57 55 39 46 50 54 57 57 50 58 58 54 47 44 43 42 49 48 43 43 43 36 45 46 43 38 33
57 57 56 56 56 56 56 56 56 56 56 55 55 56 56 56 49 52 54 56 55 52 27 48 50 60 56 52 51 52 56 53 45 45 44 43 43 42 41 44 46 43 47 44 41 36 33
56 56 56 56 56 55 55 55 55 55 55 55 55 56 56 53 50 53 55 53 52 40 26 44 49 48 48 49 49 51 51 54 51 45 44 44 48 47 47 48 47 46 42 40 35 34 28
56 56 55 56 55 55 55 55 55 55 55 55 55 56 53 55 50 55 54 50 37 31 45 42 43 47 45 43 46 46 44 41 38 34 33 40 42 45 47 42 44 43 37 29 27 25 28
56 56 56 56 55 55 55 55 55 55 55 55 55 55 55 58 55 54 51 44 31 37 37 45 45 44 40 42 42 43 40 35 38 36 34 31 32 41 46 44 41 38 38 30 25 25 28
55 55 56 55 55 55 55 55 55 55 55 55 54 50 51 54 55 52 47 33 32 35 40 40 42 37 36 39 39 39 33 33 37 36 31 30 33 43 45 45 46 37 34 42 36 32 26
55 55 55 55 55 54 54 54 54 54 55 54 46 46 49 54 52 49 41 36 37 41 42 41 34 36 31 34 33 34 33 36 38 40 36 33 29 39 43 45 42 41 42 33 32 26 24
55 55 55 55 54 54 54 54 54 54 55 54 47 43 51 53 51 44 33 36 41 43 42 38 35 33 36 32 32 30 32 37 41 37 36 33 32 32 38 36 36 36 33 32 35 35 29
55 55 54 54 54 53 53 53 54 54 54 49 44 40 52 51 40 34 32 37 41 37 38 38 37 35 32 31 28 30 30 34 39 37 29 32 27 22 28 38 35 31 28 30 27 27 25
54 53 53 53 53 53 53 53 53 53 53 42 39 38 47 47 32 30 34 35 35 34 32 32 30 32 31 28 24 29 33 38 36 34 26 31 24 14 24 29 36 29 25 26 27 27 20
53 53 53 53 53 53 53 52 53 52 53 43 37 35 36 37 34 31 30 30 30 35 33 32 32 30 27 24 27 23 27 32 33 32 41 37 25 18 11 19 23 19 16 18 19 15 15
52 52 53 52 52 52 52 52 52 52 51 41 33 29 31 28 30 29 30 29 28 28 32 32 29 28 25 20 22 22 25 26 30 35 31 28 12 20 24 25 25 10 12 13 8 2 4
52 52 52 52 52 52 52 52 52 51 49 35 30 31 31 28 31 27 28 26 27 28 28 27 26 28 26 23 24 21 24 22 22 27 24 27 11 22 14 24 23 7 9 11 11 7 4
52 52 52 52 51 51 51 52 52 51 45 31 30 32 31 29 26 25 24 25 28 29 31 32 28 25 24 27 29 29 29 29 28 24 22 23 18 7 2 19 17 8 4 10 9 8 7
51 51 51 51 51 51 51 51 52 51 44 34 31 29 29 26 27 27 29 29 28 28 26 29 29 25 30 33 32 29 25 26 25 26 28 22 21 20 7 17 0 2 9 7 5 4 6
51 51 51 51 50 51 50 51 51 51 49 35 33 30 28 24 28 28 28 27 25 26 26 28 30 32 32 28 26 22 23 24 24 27 25 27 22 13 2 -5 1 -0 3 -1 -3 -4 -2
50 50 50 50 50 50 50 50 50 51 50 36 34 33 29 25 24 30 26 26 22 19 22 27 32 32 30 29 26 6 8 20 20 22 26 26 21 14 4 2 -1 -3 4 7 2 -6 -0
49 49 49 49 49 49 49 49 50 49 50 40 36 36 31 26 27 26 24 24 27 23 22 23 26 27 30 25 19 13 18 21 7 7 7 11 6 -2 0 -8 -6 -2 0 4 -3 -3 -1
49 50 50 48 48 48 49 49 50 49 49 42 36 37 32 24 27 30 31 26 26 25 19 25 25 25 25 18 17 15 11 12 7 7 2 -3 -7 -5 -7 -11 -7 -1 4 2 -2 -9 -10
49 49 49 49 48 48 49 49 49 48 48 47 34 40 39 29 29 32 33 34 33 32 29 27 25 25 27 21 15 15 3 3 5 -3 8 3 -1 -1 -1 0 5 0 -1 -7 -8 -6 -8
MSLP
1017.65 1017.29 1016.91 1016.66 1016.37 1016.07 1015.66 1015.29 1014.87 1014.51 1014.02 1013.65 1013.13 1012.70 1012.29 1011.88 1011.49 1011.20 1011.10 1010.94 1010.78 1010.70 1010.77 1010.81 1010.92 1010.94 1011.23 1011.10 1009.26 1007.99 1007.84 1008.41 1009.06 1009.58 1009.91 1010.35 1010.85 1011.33 1011.66 1011.73 1011.74 1011.77 1011.25 1010.80 1010.29 1010.12 1010.00
1017.99 1017.60 1017.25 1016.88 1016.55 1016.20 1015.68 1015.31 1014.95 1014.57 1014.15 1013.69 1013.16 1012.69 1012.25 1011.87 1011.42 1011.04 1010.80 1010.70 1010.60 1010.57 1010.70 1010.75 1010.89 1010.94 1011.15 1010.40 1008.21 1008.14 1008.35 1008.91 1009.37 1009.78 1010.07 1010.30 1010.57 1010.84 1011.28 1011.41 1011.54 1011.08 1010.93 1010.53 1010.11 1009.84 1009.87
1018.23 1017.90 1017.55 1017.12 1016.70 1016.25 1015.78 1015.39 1015.01 1014.55 1014.12 1013.66 1013.13 1012.66 1012.21 1011.79 1011.36 1010.90 1010.59 1010.35 1010.33 1010.44 1010.57 1010.75 1010.87 1011.01 1010.70 1009.05 1008.30 1008.50 1008.70 1009.12 1009.42 1009.69 1010.04 1010.22 1010.36 1010.81 1011.14 1011.30 1011.12 1011.01 1011.08 1010.52 1009.85 1009.56 1009.79
1018.45 1018.15 1017.76 1017.34 1016.89 1016.45 1015.99 1015.50 1015.05 1014.60 1014.17 1013.62 1013.08 1012.66 1012.22 1011.73 1011.23 1010.72 1010.40 1010.17 1010.22 1010.33 1010.50 1010.69 1010.84 1010.97 1010.02 1008.45 1008.37 1008.81 1008.97 1009.33 1009.53 1009.63 1009.74 1009.98 1010.26 1010.82 1011.18 1011.30 1011.31 1011.41 1011.41 1011.16 1009.66 1009.74 1009.65
1018.85 1018.46 1018.01 1017.56 1017.03 1016.57 1016.16 1015.64 1015.18 1014.67 1014.13 1013.58 1013.08 1012.63 1012.17 1011.69 1011.14 1010.63 1010.23 1010.01 1010.07 1010.35 1010.48 1010.72 1010.95 1010.86 1009.48 1008.67 1008.70 1008.70 1008.90 1009.29 1009.67 1009.75 1009.86 1010.03 1010.39 1011.25 1011.66 1012.16 1012.54 1012.23 1012.15 1011.61 1010.55 1009.77 1009.82
1019.17 1018.73 1018.23 1017.69 1017.24 1016.78 1016.34 1015.86 1015.36 1014.79 1014.23 1013.67 1013.13 1012.66 1012.22 1011.73 1011.21 1010.67 1010.21 1010.06 1010.22 1010.40 1010.71 1010.73 1010.76 1011.10 1009.39 1008.53 1008.33 1008.58 1008.96 1009.28 1009.82 1010.16 1010.46 1010.75 1011.49 1012.03 1012.67 1012.99 1012.82 1012.48 1012.45 1011.78 1011.12 1010.24 1010.18
1019.42 1019.01 1018.48 1017.95 1017.45 1016.94 1016.47 1015.99 1015.44 1014.91 1014.30 1013.73 1013.19 1012.69 1012.21 1011.62 1011.13 1010.76 1010.61 1010.56 1010.88 1010.97 1010.72 1009.78 1009.73 1009.51 1008.68 1008.45 1008.23 1008.83 1009.08 1009.52 1010.06 1010.73 1011.31 1011.62 1012.25 1012.04 1011.54 1012.03 1012.07 1012.00 1012.14 1011.81 1010.95 1010.35 1010.42
1019.70 1019.22 1018.73 1018.21 1017.68 1017.14 1016.58 1016.00 1015.41 1014.79 1014.22 1013.68 1013.12 1012.57 1012.02 1011.41 1010.82 1010.42 1010.50 1010.53 1010.46 1010.66 1010.24 1009.52 1009.51 1009.26 1008.79 1008.51 1008.83 1009.12 1009.24 1009.90 1010.43 1011.17 1011.63 1012.37 1012.08 1011.27 1011.64 1012.02 1012.32 1012.39 1012.30 1011.78 1010.95 1010.33 1010.73
1019.99 1019.45 1019.00 1018.44 1017.88 1017.27 1016.66 1016.02 1015.37 1014.69 1014.05 1013.47 1012.93 1012.38 1011.76 1011.11 1010.62 1010.39 1010.41 1010.53 1010.39 1010.45 1010.55 1009.40 1008.90 1008.75 1008.44 1008.70 1008.79 1009.09 1009.36 1009.95 1010.63 1011.43 1011.79 1012.05 1011.16 1010.85 1011.45 1011.93 1012.34 1011.94 1012.15 1011.96 1011.56 1010.91 1010.65
1020.20 1019.73 1019.24 1018.63 1018.01 1017.37 1016.68 1015.99 1015.29 1014.57 1013.83 1013.14 1012.58 1012.10 1011.57 1010.94 1010.64 1010.45 1010.52 1010.48 1010.36 1010.42 1010.42 1009.52 1008.73 1008.33 1008.28 1008.41 1009.08 1009.20 1009.31 1009.83 1010.61 1011.08 1011.70 1011.88 1010.70 1010.92 1011.38 1011.63 1011.72 1011.50 1011.08 1011.24 1011.57 1012.11 1011.96
1020.44 1019.92 1019.40 1018.74 1018.06 1017.43 1016.71 1016.00 1015.21 1014.39 1013.59 1012.81 1012.15 1011.61 1011.20 1011.13 1010.92 1010.65 1010.81 1010.45 1010.44 1010.52 1010.35 1009.57 1008.71 1008.26 1008.41 1009.01 1009.50 1009.63 1009.56 1009.73 1010.43 1010.97 1011.66 1011.09 1010.61 1010.62 1010.86 1010.58 1010.70 1010.52 1010.46 1011.02 1011.44 1012.05 1012.37
1020.64 1020.15 1019.58 1018.94 1018.21 1017.52 1016.68 1015.86 1015.06 1014.21 1013.32 1012.47 1011.70 1011.12 1010.76 1010.87 1010.87 1010.62 1010.45 1010.49 1010.66 1011.28 1010.44 1009.73 1009.08 1008.85 1009.22 1009.53 1009.92 1010.20 1010.16 1010.25 1010.74 1011.25 1011.45 1011.19 1010.57 1010.34 1009.75 1009.57 1009.88 1010.11 1010.59 1011.26 1011.89 1012.61 1012.94
1020.81 1020.33 1019.78 1019.08 1018.35 1017.59 1016.72 1015.81 1014.90 1013.97 1013.04 1012.18 1011.39 1010.92 1010.71 1010.64 1010.76 1010.39 1010.49 1010.84 1011.57 1011.58 1010.92 1010.89 1010.27 1010.01 1010.16 1010.67 1010.81 1010.96 1011.28 1011.99 1012.57 1012.71 1012.50 1011.74 1010.69 1009.77 1009.52 1009.74 1009.89 1010.22 1011.04 1012.01 1012.50 1013.24 1012.73
1021.00 1020.45 1019.79 1019.07 1018.43 1017.64 1016.76 1015.81 1014.79 1013.79 1012.87 1011.96 1011.18 1010.91 1010.62 1010.53 1010.37 1010.30 1010.73 1011.47 1012.39 1012.66 1012.36 1011.87 1011.49 1011.24 1011.77 1012.21 1012.31 1012.20 1012.60 1013.78 1014.29 1014.35 1014.07 1013.36 1011.74 1010.29 1009.91 1009.89 1010.03 1010.50 1011.07 1011.80 1012.11 1012.59 1013.25
1021.05 1020.52 1019.77 1019.12 1018.50 1017.68 1016.76 1015.74 1014.56 1013.54 1012.56 1011.59 1010.99 1011.02 1010.96 1010.63 1010.24 1010.42 1011.14 1012.39 1013.92 1014.12 1013.99 1013.41 1012.84 1012.93 1013.51 1013.71 1013.87 1013.87 1014.86 1015.67 1016.19 1016.10 1016.06 1015.20 1013.14 1011.07 1010.43 1010.01 1010.18 1010.95 1011.14 1010.85 1011.94 1012.53 1014.00
1021.26 1020.63 1019.99 1019.33 1018.63 1017.78 1016.82 1015.65 1014.38 1013.25 1012.17 1011.37 1011.39 1011.48 1011.18 1010.64 1010.32 1010.66 1011.94 1014.00 1015.04 1015.31 1015.05 1014.61 1014.67 1014.86 1015.20 1015.61 1015.54 1015.69 1016.02 1017.28 1017.21 1017.24 1017.15 1016.94 1015.42 1012.93 1011.68 1010.85 1010.86 1011.09 1011.44 1012.01 1012.81 1013.47 1014.22
1021.47 1020.77 1020.12 1019.48 1018.83 1017.93 1016.93 1015.76 1014.40 1012.97 1011.93 1011.29 1011.59 1011.86 1011.02 1010.49 1010.55 1011.66 1013.93 1015.30 1016.00 1016.33 1016.06 1016.04 1016.21 1016.51 1016.93 1017.30 1017.26 1017.28 1017.42 1018.31 1018.22 1018.20 1018.07 1017.99 1017.34 1014.73 1013.79 1013.10 1013.11 1013.37 1013.53 1014.13 1014.20 1014.39 1015.61
1021.85 1021.20 1020.55 1019.67 1018.98 1018.06 1017.07 1015.92 1014.58 1012.99 1011.95 1011.53 1012.08 1012.45 1011.47 1010.52 1012.32 1014.77 1016.04 1016.63 1017.12 1017.51 1017.50 1017.41 1017.64 1018.22 1018.65 1018.81 1018.79 1018.70 1018.71 1019.01 1019.31 1019.14 1019.53 1019.16 1018.68 1017.52 1016.20 1015.42 1015.77 1016.77 1017.90 1018.10 1017.96 1017.69 1019.21
1022.48 1021.77 1021.02 1020.10 1019.28 1018.35 1017.21 1016.04 1014.78 1013.49 1012.53 1012.65 1013.39 1013.68 1012.28 1011.73 1015.05 1016.92 1017.49 1018.16 1018.89 1018.89 1019.24 1019.25 1019.93 1020.04 1020.22 1020.30 1020.42 1020.16 1019.96 1020.43 1020.50 1020.43 1020.57 1020.25 1020.02 1019.54 1017.73 1017.79 1018.16 1019.72 1021.41 1022.04 1022.14 1021.97 1022.26
1022.95 1022.33 1021.57 1020.74 1019.63 1018.61 1017.60 1016.37 1015.13 1013.88 1012.97 1013.17 1014.51 1015.57 1015.64 1015.69 1017.36 1017.77 1018.61 1019.44 1019.83 1020.08 1020.32 1020.65 1021.18 1021.28 1021.55 1021.71 1021.63 1021.72 1021.39 1021.15 1021.20 1021.26 1021.09 1020.94 1021.39 1021.45 1021.32 1021.53 1022.25 1023.27 1024.30 1025.01 1025.06 1025.77 1026.17
1023.53 1022.91 1021.97 1021.17 1020.24 1019.39 1018.40 1017.24 1015.86 1014.44 1013.51 1013.77 1016.37 1018.53 1018.93 1019.14 1019.34 1019.22 1019.41 1020.46 1020.85 1021.14 1021.31 1021.42 1022.14 1022.52 1022.80 1022.86 1022.73 1022.47 1022.46 1022.53 1022.17 1021.93 1021.76 1022.13 1022.59 1022.64 1022.67 1023.00 1023.87 1025.98 1027.11 1027.77 1028.34 1029.42 1030.19
1023.99 1023.31 1022.56 1021.81 1021.06 1020.29 1019.40 1018.21 1016.90 1015.34 1014.52 1016.02 1018.43 1019.33 1019.63 1020.23 1020.42 1020.42 1020.69 1021.77 1021.89 1022.10 1022.17 1022.30 1022.73 1022.97 1022.99 1023.20 1023.24 1023.33 1023.25 1023.39 1023.38 1022.93 1023.22 1023.71 1023.85 1023.97 1024.09 1024.38 1025.24 1027.95 1029.41 1030.20 1031.13 1031.99 1032.64
1024.40 1023.86 1023.09 1022.40 1021.76 1020.97 1020.27 1019.45 1018.40 1017.35 1016.27 1018.48 1019.84 1019.81 1019.79 1021.41 1021.49 1021.52 1022.24 1022.49 1022.61 1022.54 1022.70 1022.69 1022.93 1022.96 1022.92 1022.95 1023.09 1023.10 1023.12 1023.24 1023.47 1023.69 1024.17 1024.76 1024.76 1025.58 1025.77 1026.28 1027.70 1030.16 1031.90 1032.56 1033.49 1034.36 1034.94
1024.81 1024.24 1023.70 1023.01 1022.44 1021.87 1021.25 1020.60 1019.80 1019.36 1019.21 1020.09 1020.94 1020.81 1020.81 1022.34 1022.10 1022.41 1022.73 1022.92 1023.19 1023.23 1023.28 1023.11 1022.93 1022.97 1022.90 1022.66 1022.50 1022.28 1022.64 1023.02 1023.57 1023.85 1024.30 1024.91 1025.58 1026.49 1027.34 1028.22 1030.57 1032.89 1033.75 1034.45 1035.26 1036.26 1036.87
1025.25 1024.79 1024.18 1023.74 1023.21 1022.64 1022.16 1021.60 1021.16 1020.52 1020.36 1020.95 1021.15 1021.29 1021.77 1022.77 1022.86 1023.06 1023.21 1023.46 1023.61 1023.80 1023.79 1023.66 1023.29 1023.11 1023.01 1022.98 1023.09 1023.13 1023.47 1023.97 1024.48 1024.56 1024.62 1025.33 1026.47 1027.49 1029.27 1031.54 1033.16 1034.34 1035.53 1036.41 1037.11 1038.10 1038.68
1025.81 1025.29 1024.80 1024.22 1023.79 1023.45 1022.86 1022.40 1022.04 1021.53 1021.13 1021.51 1021.61 1021.50 1022.05 1022.80 1023.65 1023.23 1023.51 1023.73 1024.13 1024.34 1024.32 1023.98 1023.43 1023.14 1023.14 1023.36 1023.71 1024.62 1024.60 1024.89 1025.45 1025.97 1026.09 1026.81 1027.79 1029.08 1031.38 1033.58 1034.92 1036.14 1036.90 1037.49 1038.21 1039.37 1039.88
1026.17 1025.76 1025.32 1024.94 1024.45 1023.88 1023.46 1023.08 1022.56 1022.11 1021.72 1021.89 1022.11 1021.92 1022.24 1023.23 1023.74 1023.67 1023.73 1023.89 1024.21 1024.45 1024.65 1024.51 1024.23 1023.77 1023.69 1024.13 1024.69 1025.42 1025.78 1026.42 1027.66 1028.73 1029.36 1029.97 1031.19 1032.80 1034.02 1035.44 1036.73 1037.42 1038.21 1038.62 1040.01 1041.53 1041.13
1026.50 1025.81 1025.49 1025.28 1024.79 1024.30 1023.81 1023.38 1022.88 1022.63 1022.26 1022.26 1022.50 1022.35 1022.69 1023.54 1023.87 1023.75 1023.82 1024.00 1024.35 1024.52 1024.86 1024.84 1024.79 1024.62 1024.60 1024.97 1025.69 1026.53 1027.53 1028.55 1029.96 1031.83 1032.93 1034.15 1035.61 1036.20 1036.84 1037.69 1038.40 1038.90 1039.31 1040.28 1041.15 1041.62 1041.97
1026.80 1026.21 1025.67 1025.31 1024.98 1024.52 1024.06 1023.65 1023.18 1023.01 1022.59 1022.21 1022.67 1022.59 1022.66 1023.41 1024.00 1024.11 1024.10 1024.12 1024.09 1024.34 1024.73 1025.03 1025.30 1025.21 1025.16 1025.62 1026.53 1027.41 1028.89 1030.11 1031.71 1033.75 1035.16 1036.87 1038.24 1038.74 1039.15 1039.16 1039.39 1039.96 1040.59 1041.01 1041.45 1042.56 1042.55
Wind_Speed
16 16 16 16 16 17 17 18 18 18 18 18 18 17 16 15 13 10 9 8 9 7 6 4 4 2 1 2 9 0 11 11 6 5 7 6 5 5 4 4 3 5 5 5 8 9 7
15 16 16 16 17 18 18 19 19 19 19 19 19 18 18 16 14 11 8 7 7 7 5 4 3 2 2 3 1 6 9 7 5 5 5 5 6 7 4 4 5 2 4 7 7 9 5
16 16 17 17 18 18 19 19 20 20 20 20 20 20 19 18 16 12 9 7 6 5 4 4 3 2 1 11 2 5 7 5 6 5 5 3 3 3 1 4 3 3 6 8 8 4 8
17 17 17 18 18 19 19 20 20 20 20 21 21 21 20 19 18 15 11 7 5 3 3 3 3 1 7 2 5 6 2 3 3 3 3 3 5 2 2 2 7 4 2 4 3 5 2
17 17 17 18 19 19 20 20 20 21 21 22 22 21 22 20 19 17 12 5 2 4 3 5 2 2 9 3 4 4 3 6 5 3 3 3 4 2 3 4 5 3 5 5 10 4 3
16 17 18 18 19 19 20 20 21 21 21 22 22 22 22 20 18 16 9 4 8 8 3 1 1 2 4 4 3 6 2 6 4 4 4 4 5 3 2 4 7 6 5 5 6 1 2
16 17 18 19 19 20 20 21 21 21 21 22 22 22 22 21 18 14 3 4 4 3 2 8 6 3 2 1 3 3 4 4 4 6 4 0 3 11 15 10 4 2 3 5 4 3 3
17 18 19 20 20 21 21 21 22 22 22 22 22 22 23 22 20 14 3 3 2 1 6 4 4 6 4 1 4 2 5 5 3 5 4 3 8 11 4 7 7 6 6 9 9 5 6
17 19 20 20 21 21 22 22 22 23 23 22 22 22 22 22 23 2 3 2 1 3 1 5 4 4 4 5 3 8 8 4 3 5 6 7 7 4 7 4 6 9 8 5 9 6 4
18 19 20 20 21 21 22 23 23 23 23 23 23 22 20 21 1 1 2 2 1 2 5 2 1 1 1 3 1 2 5 5 2 8 6 6 7 7 4 5 9 6 11 12 7 0 4
18 19 20 21 22 22 22 23 24 24 24 23 23 22 16 6 2 3 1 2 3 4 3 1 1 2 2 5 4 4 1 2 4 4 5 7 2 3 4 9 9 9 6 7 4 5 1
18 19 20 21 22 22 23 24 24 25 24 24 24 19 7 3 1 1 2 2 3 7 6 2 1 1 3 2 2 2 2 3 1 2 3 8 3 3 8 4 7 1 3 5 4 3 4
18 19 19 21 23 23 24 25 25 25 25 25 24 16 3 1 1 2 1 3 6 4 5 5 3 4 3 5 3 1 3 6 3 4 4 5 4 4 2 2 2 3 5 4 3 1 9
18 19 20 21 23 24 25 26 26 26 25 23 18 9 2 1 4 1 3 5 3 3 3 4 3 3 5 8 4 4 3 3 10 5 2 2 7 0 3 4 4 5 8 6 5 4 5
20 20 22 23 24 25 26 28 28 27 23 19 9 3 3 7 3 2 5 5 3 3 4 6 4 5 3 5 4 5 5 3 6 7 2 5 6 6 3 2 5 1 4 4 5 4 1
20 20 21 23 25 26 27 30 30 27 22 12 2 2 3 10 4 4 6 5 3 5 5 3 2 4 3 7 4 6 2 3 2 7 2 3 8 5 6 4 1 4 2 2 1 4 9
19 22 22 24 26 27 29 30 32 28 24 8 3 4 4 12 2 7 5 4 4 5 6 6 3 4 4 4 4 3 3 5 5 5 7 4 3 4 8 3 4 7 4 5 3 5 9
23 23 25 25 26 29 30 31 33 29 24 6 2 4 5 6 7 3 4 3 6 7 9 7 5 7 5 6 4 3 3 4 9 2 3 2 2 6 7 5 13 8 6 6 3 6 5
23 24 24 27 27 28 31 32 33 29 20 2 3 1 5 4 5 3 3 5 6 8 7 7 7 7 5 3 3 5 6 6 9 5 2 4 3 6 7 3 9 7 7 4 4 5 3
22 22 24 24 27 29 31 33 34 31 20 4 4 3 6 7 2 6 4 4 4 6 4 6 4 6 6 6 5 2 3 3 8 3 12 5 3 7 7 3 0 3 5 4 1 3 6
21 23 24 26 28 29 30 31 35 33 19 5 5 2 0 4 6 6 5 3 3 5 5 6 4 5 3 2 3 2 2 6 7 9 4 4 3 2 4 8 3 3 3 6 4 3 6
22 23 24 25 26 28 29 30 33 37 14 8 4 3 4 3 3 5 6 3 2 3 2 3 4 2 3 3 4 5 2 1 5 5 4 5 4 4 6 2 4 6 6 6 6 3 3
21 22 23 24 25 27 28 28 30 33 17 5 3 2 4 5 3 3 2 2 3 0 2 5 2 1 2 3 3 7 8 8 8 3 2 3 2 3 5 5 6 1 3 4 3 3 3
20 21 21 23 24 25 26 27 27 26 17 3 2 2 4 2 4 3 2 3 3 2 1 4 3 1 2 6 7 3 3 4 4 8 8 3 1 3 4 0 3 1 3 3 5 3 4
21 20 20 22 22 23 24 24 23 25 18 4 2 3 3 4 3 4 4 3 3 4 4 2 2 2 4 3 3 4 1 3 2 5 5 7 2 1 3 1 3 4 2 2 4 4 1
20 20 21 20 20 21 22 20 21 19 19 4 2 2 4 5 1 3 3 2 2 2 5 3 4 4 4 1 2 2 2 2 2 2 5 5 6 3 3 3 4 4 2 2 3 4 3
20 20 20 20 21 19 19 19 18 20 19 4 2 3 4 4 1 2 2 2 2 2 1 3 6 6 3 2 0 0 0 2 1 2 6 5 5 4 2 1 5 4 4 1 3 3 4
18 20 19 19 19 20 19 19 18 17 17 5 2 3 4 3 1 1 2 2 2 2 2 4 2 2 3 3 1 1 2 1 4 2 1 3 3 1 3 4 5 2 2 3 4 3 4
18 20 20 18 17 17 19 18 17 16 16 7 1 2 1 4 2 1 2 3 2 3 2 1 1 1 1 1 1 3 2 4 4 1 5 2 0 1 4 3 1 2 4 2 4 3 4
Wind_Direction
24 18 16 13 11 9 8 6 4 360 358 356 356 356 353 348 338 320 298 285 279 268 258 245 233 224 154 248 255 344 117 112 92 113 154 144 132 152 190 213 172 221 257 233 243 268 249
20 16 13 10 8 7 7 4 0 357 355 354 355 354 352 348 344 330 309 289 279 271 258 239 234 174 200 253 249 146 118 112 126 127 156 126 185 196 215 233 179 236 247 268 270 251 240
18 14 11 10 8 5 4 1 357 355 353 352 352 351 350 349 348 343 323 297 283 260 235 223 212 222 211 238 43 132 121 146 156 149 145 196 163 151 138 287 296 280 307 312 243 229 232
15 12 10 8 7 3 0 358 355 353 351 350 350 349 348 347 346 346 332 309 278 246 187 183 175 187 247 312 127 124 149 113 131 148 115 132 156 153 183 294 355 343 27 339 281 142 333
12 9 9 5 3 1 358 356 353 350 348 348 347 347 345 345 345 344 333 314 188 143 114 146 126 126 267 127 127 177 145 147 128 107 72 98 94 151 51 83 350 344 257 227 314 194 125
8 6 5 3 0 357 355 353 350 347 345 344 343 343 341 341 343 344 350 110 116 105 93 171 286 23 275 231 160 143 120 128 115 99 56 70 57 87 53 114 233 211 226 245 248 258 160
7 3 1 359 357 354 352 349 347 344 342 341 339 338 336 335 337 338 324 88 41 6 263 187 195 236 83 41 104 67 135 93 88 66 152 52 127 214 207 202 211 159 212 254 254 253 277
4 2 359 357 354 352 350 347 344 341 339 338 336 334 332 330 330 329 144 121 129 174 300 235 233 291 285 224 86 91 123 135 139 181 132 51 237 238 186 208 230 261 282 276 288 247 180
2 359 358 356 354 351 349 346 343 340 338 335 333 330 328 326 322 118 111 117 126 122 151 306 184 173 213 148 196 196 135 134 144 167 195 180 230 81 177 185 204 232 228 235 239 316 256
2 2 358 356 354 352 349 345 341 338 336 333 329 326 324 324 56 300 80 353 81 113 61 289 94 30 108 123 107 18 176 138 191 208 199 235 262 255 165 229 184 262 206 235 247 114 255
3 360 357 356 354 350 348 344 340 337 335 332 327 322 318 313 291 113 124 349 122 62 15 5 11 295 40 124 143 2 288 68 213 199 127 249 276 184 185 222 156 238 177 205 212 193 322
3 0 359 358 356 353 351 346 341 337 334 332 327 326 312 111 165 55 351 59 52 50 259 9 28 61 104 43 52 55 65 48 42 271 210 242 295 264 213 208 176 166 122 51 56 99 256
4 2 1 358 357 354 352 347 342 338 335 332 327 336 126 194 155 327 51 61 50 146 349 350 349 15 97 352 57 107 127 35 25 360 350 324 246 282 171 245 235 121 74 310 311 97 232
4 1 0 356 357 354 352 349 344 340 336 329 324 326 268 87 308 62 72 60 188 64 348 342 1 331 85 357 50 6 79 102 30 6 291 345 329 308 330 189 219 187 170 180 245 226 268
4 2 1 1 357 356 353 350 347 342 335 330 326 342 9 337 322 92 80 65 56 11 300 335 331 58 42 356 30 31 57 65 35 7 37 356 271 319 300 266 151 141 173 222 260 241 294
6 5 3 2 359 357 355 353 349 345 341 346 81 33 338 340 355 75 76 101 89 9 330 321 37 23 55 353 46 23 65 359 45 10 274 42 290 272 314 347 45 173 236 278 348 274 253
5 11 9 7 2 0 358 356 353 352 348 344 57 55 273 344 75 52 88 75 102 39 23 24 58 38 53 18 353 321 49 50 26 358 41 15 224 292 12 312 19 347 355 355 288 238 263
16 10 8 9 6 3 360 360 359 357 353 39 86 55 320 340 55 31 57 32 10 0 11 26 67 57 41 12 357 343 42 64 354 3 33 303 261 279 226 327 72 57 45 27 327 313 282
15 11 9 8 9 5 1 360 1 1 9 21 71 354 332 33 98 68 45 70 60 19 24 21 33 47 12 30 11 12 25 116 32 44 34 330 314 328 332 67 45 39 48 23 284 248 255
16 13 14 11 10 9 4 2 1 3 6 80 69 51 354 37 32 103 107 47 78 24 60 69 72 59 35 15 15 311 331 28 351 337 317 246 227 183 207 173 205 332 36 356 299 240 318
17 14 17 15 15 12 7 5 3 6 6 82 26 71 231 22 24 69 81 62 47 17 23 35 82 81 82 345 318 300 30 353 327 317 16 71 208 295 300 316 338 97 24 34 96 217 169
13 15 17 19 17 16 12 11 9 6 13 78 85 96 27 57 31 55 29 48 70 337 15 62 71 354 169 201 209 272 333 155 242 331 53 1 293 342 296 286 133 104 28 111 63 11 114
21 14 14 18 18 18 18 13 17 15 20 68 341 39 93 350 43 64 35 110 64 314 37 100 122 320 266 266 233 252 230 229 232 237 5 277 195 74 273 125 135 327 6 46 130 71 312
18 16 16 19 17 17 20 19 17 24 35 78 7 70 74 57 66 78 105 101 63 44 273 333 42 81 261 336 297 255 219 237 236 256 192 233 149 209 245 288 247 127 25 54 97 75 25
18 15 17 18 13 16 14 19 18 20 29 61 353 67 69 93 89 94 80 70 57 5 20 307 268 229 334 313 354 7 266 170 75 36 68 203 213 287 124 160 318 338 321 52 100 274 309
13 12 12 11 15 11 11 14 14 14 18 50 19 79 82 116 288 93 103 65 91 358 355 286 320 326 19 14 324 127 228 6 145 152 71 83 36 126 80 149 236 236 268 11 119 292 268
14 12 9 6 6 6 10 4 11 5 6 41 353 27 71 96 332 63 122 145 117 95 221 306 337 356 9 6 333 174 64 323 81 46 342 357 6 72 14 137 296 250 280 7 89 264 296
4 6 7 6 1 360 4 359 2 4 355 24 329 17 101 91 334 33 56 120 75 86 117 293 27 356 355 41 87 302 100 96 85 111 62 94 64 359 59 53 309 233 351 175 189 289 237
1 360 357 5 1 355 357 353 350 357 343 356 19 343 66 91 161 25 354 352 36 147 138 315 196 253 265 6 357 91 39 40 147 80 32 14 160 265 179 234 230 264 219 242 132 167 290